This page uses our WeatherBlox Daily Observations layout. Learn more.

39.04372, -77.48749

Hourly Observations for November 22, 2017

Temp ( °F °C ) Dew Point ( °F °C ) Humidity (%) Winds ( mph kmh ) Pressure ( in mb ) Visibility ( mi km ) Precip ( " mm )
12:15 am 00:15 Partly Cloudy 52 11 43 6 72 S 9 15 30.00 1016 10 16 0.00 0.00
12:35 am 00:35 Mostly Cloudy 52 11 43 6 72 SSW 6 9 29.97 1015 10 16 0.00 0.00
12:55 am 00:55 Partly Cloudy 50 10 43 6 76 S 8 13 29.97 1015 10 16 0.00 0.00
1:15 am 01:15 Partly Cloudy 50 10 45 7 82 SSW 5 7 29.97 1015 10 16 0.00 0.00
1:35 am 01:35 Partly Cloudy 50 10 45 7 82 SSW 6 9 29.94 1014 10 16 0.00 0.00
2:00 am 02:00 Clear 50 10 45 7 82 SSW 6 9 29.94 1014 10 16 0.00 0.00
2:15 am 02:15 Mostly Cloudy 50 10 45 7 82 SW 5 7 29.94 1014 10 16 0.00 0.00
2:35 am 02:35 Cloudy 50 10 45 7 82 W 3 6 29.94 1014 10 16 0.00 0.00
2:55 am 02:55 Cloudy 50 10 43 6 76 WSW 3 6 29.94 1014 10 16 0.00 0.00
3:15 am 03:15 Cloudy 50 10 43 6 76 SSW 5 7 29.94 1014 10 16 0.00 0.00
3:35 am 03:35 Cloudy 50 10 43 6 76 SSW 3 6 29.94 1014 10 16 0.00 0.00
3:55 am 03:55 Cloudy 50 10 43 6 76 Calm 29.94 1014 10 16 0.00 0.00
4:15 am 04:15 Cloudy 50 10 45 7 82 Calm 29.94 1014 10 16 0.00 0.00
4:35 am 04:35 Mostly Cloudy 50 10 43 6 76 Calm 29.94 1014 10 16 0.00 0.00
4:55 am 04:55 Mostly Cloudy 50 10 43 6 76 Calm 29.91 1013 10 16 0.00 0.00
5:15 am 05:15 Mostly Cloudy 46 8 43 6 87 Calm 29.97 1015 10 16 0.00 0.00
5:35 am 05:35 Cloudy 46 8 43 6 87 W 3 6 29.97 1015 10 16 0.00 0.00
5:55 am 05:55 Partly Cloudy 48 9 43 6 82 WSW 3 6 29.94 1014 10 16 0.00 0.00
6:15 am 06:15 Partly Cloudy 46 8 43 6 87 NW 6 9 29.97 1015 10 16 0.00 0.00
6:35 am 06:35 Mostly Cloudy 50 10 41 5 71 NW 8 13 29.94 1014 10 16 0.00 0.00
6:55 am 06:55 Cloudy 54 12 39 4 58 NW 12 19 29.97 1015 10 16 0.00 0.00
7:15 am 07:15 Cloudy 54 12 37 3 54 NNW 6 9 29.97 1015 10 16 0.00 0.00
7:35 am 07:35 Partly Cloudy 52 11 37 3 58 NW 6 9 29.97 1015 10 16 0.00 0.00
7:55 am 07:55 Sunny 54 12 37 3 54 NW 12 19 29.97 1015 10 16 0.00 0.00
8:15 am 08:15 Sunny 54 12 37 3 54 NW 15 24 30.00 1016 10 16 0.00 0.00
8:35 am 08:35 Sunny 55 13 37 3 51 NNW 10 17 30.00 1016 10 16 0.00 0.00
8:55 am 08:55 Sunny 55 13 36 2 47 NNW 18 30 30.00 1016 10 16 0.00 0.00
9:15 am 09:15 Sunny 55 13 37 3 51 NNW 15 24 30.00 1016 10 16 0.00 0.00
9:35 am 09:35 Sunny 55 13 37 3 51 NNW 16 26 30.00 1016 10 16 0.00 0.00
9:55 am 09:55 Partly Cloudy 55 13 37 3 51 NNW 18 30 30.03 1017 10 16 0.00 0.00
10:15 am 10:15 Mostly Cloudy 54 12 37 3 54 NW 23 37 30.03 1017 10 16 0.00 0.00
10:35 am 10:35 Mostly Cloudy 52 11 37 3 58 NNW 18 30 30.03 1017 10 16 0.00 0.00
10:55 am 10:55 Cloudy 52 11 36 2 54 NNW 22 35 30.03 1017 10 16 0.00 0.00
11:15 am 11:15 Cloudy 54 12 36 2 51 NW 20 31 30.06 1018 10 16 0.00 0.00
11:35 am 11:35 Cloudy 50 10 34 1 54 NNW 18 30 30.09 1019 10 16 0.00 0.00
11:55 am 11:55 Mostly Cloudy 52 11 34 1 50 NW 23 37 30.06 1018 10 16 0.00 0.00
12:15 pm 12:15 Mostly Cloudy 52 11 34 1 50 NW 23 37 30.03 1017 10 16 0.00 0.00
12:35 pm 12:35 Partly Cloudy 52 11 34 1 50 NW 21 33 30.03 1017 10 16 0.00 0.00
12:55 pm 12:55 Mostly Cloudy 54 12 32 0 44 NNW 18 30 30.03 1017 10 16 0.00 0.00
1:15 pm 13:15 Mostly Cloudy 52 11 32 0 47 NNW 20 31 30.06 1018 10 16 0.00 0.00
1:35 pm 13:35 Partly Cloudy 52 11 32 0 47 N 17 28 30.06 1018 10 16 0.00 0.00
1:55 pm 13:55 Mostly Cloudy 52 11 32 0 47 NW 20 31 30.06 1018 10 16 0.00 0.00
2:15 pm 14:15 Mostly Cloudy 52 11 32 0 47 N 22 35 30.06 1018 10 16 0.00 0.00
2:35 pm 14:35 Mostly Cloudy 50 10 32 0 50 NNW 20 31 30.09 1019 10 16 0.00 0.00
2:55 pm 14:55 Mostly Cloudy 48 9 32 0 54 N 13 20 30.09 1019 10 16 0.00 0.00
3:15 pm 15:15 Cloudy 46 8 32 0 57 N 16 26 30.12 1020 10 16 0.00 0.00
3:35 pm 15:35 Cloudy 46 8 32 0 57 N 14 22 30.12 1020 10 16 0.00 0.00
3:55 pm 15:55 Cloudy 46 8 32 0 57 N 17 28 30.15 1021 10 16 0.00 0.00
4:15 pm 16:15 Mostly Cloudy 45 7 30 -1 57 N 16 26 30.15 1021 10 16 0.00 0.00
4:35 pm 16:35 Mostly Cloudy 45 7 30 -1 57 N 16 26 30.15 1021 10 16 0.00 0.00
4:55 pm 16:55 Partly Cloudy 43 6 30 -1 61 NNW 9 15 30.15 1021 10 16 0.00 0.00
5:15 pm 17:15 Mostly Cloudy 43 6 30 -1 61 NNW 14 22 30.15 1021 10 16 0.00 0.00
5:35 pm 17:35 Partly Cloudy 43 6 28 -2 57 NNW 16 26 30.18 1022 10 16 0.00 0.00
5:55 pm 17:55 Clear 41 5 28 -2 61 NNW 12 19 30.18 1022 10 16 0.00 0.00
6:15 pm 18:15 Clear 41 5 28 -2 61 N 5 7 30.18 1022 10 16 0.00 0.00
6:35 pm 18:35 Clear 41 5 28 -2 61 N 9 15 30.18 1022 10 16 0.00 0.00
6:55 pm 18:55 Clear 41 5 28 -2 61 N 7 11 30.18 1022 10 16 0.00 0.00
7:15 pm 19:15 Clear 39 4 28 -2 65 N 6 9 30.21 1023 10 16 0.00 0.00
7:35 pm 19:35 Clear 39 4 28 -2 65 NNW 8 13 30.21 1023 10 16 0.00 0.00
7:55 pm 19:55 Partly Cloudy 39 4 28 -2 65 NNW 6 9 30.21 1023 10 16 0.00 0.00
8:15 pm 20:15 Mostly Cloudy 39 4 28 -2 65 NNW 9 15 30.21 1023 10 16 0.00 0.00
8:35 pm 20:35 Partly Cloudy 37 3 28 -2 70 NNW 5 7 30.21 1023 10 16 0.00 0.00
8:55 pm 20:55 Clear 37 3 27 -3 65 NNW 8 13 30.24 1024 10 16 0.00 0.00
9:15 pm 21:15 Clear 37 3 28 -2 70 NNW 16 26 30.24 1024 10 16 0.00 0.00
9:35 pm 21:35 Clear 37 3 27 -3 65 NNW 14 22 30.24 1024 10 16 0.00 0.00
9:55 pm 21:55 Clear 37 3 27 -3 65 N 6 9 30.24 1024 10 16 0.00 0.00
10:15 pm 22:15 Clear 37 3 27 -3 65 N 6 9 30.24 1024 10 16 0.00 0.00
10:35 pm 22:35 Partly Cloudy 36 2 27 -3 70 NW 9 15 30.24 1024 10 16 0.00 0.00
10:55 pm 22:55 Clear 36 2 27 -3 70 NW 5 7 30.24 1024 10 16 0.00 0.00
11:15 pm 23:15 Clear 36 2 27 -3 70 NNW 8 13 30.24 1024 10 16 0.00 0.00
11:35 pm 23:35 Clear 34 1 27 -3 75 NNW 7 11 30.24 1024 10 16 0.00 0.00
11:55 pm 23:55 Clear 34 1 28 -2 81 NNW 10 17 30.21 1023 10 16 0.00 0.00